Location: Kolin
(50.0330°N, 15.2000°E)
Time: 11:17:05
(UTC+02:00)

ISS - Pass Details

Date: 27 May 2021
Orbit: 417 x 422 km, 51.6° (Epoch: 13 June)

Event Time Altitude Azimuth Distance (km) Brightness Sun altitude
Rises 23:51:23 0° 280° (W) 2,368 0.4 -17.1°
Reaches altitude 10° 23:54:31 10° 248° (WSW) 1,500 -1.0 -17.2°
Enters shadow 23:55:02 11° 240° (WSW) 1,427 -1.2 -17.2°
